x

8461490 - New London, Ct (nlnc3) Weather Station

2:54pm - Thu 18th Dec 2014 All times are EST. -5 hours from GMT.

  • Wind
    6mph, 14mph gusts
  • Sea Temp 44°f
  • 空気 Temp 41°f
  • Sea Pressure 1010.3mb
  • 8461490 - New London, Ct
  • 8461490 - New London, Ct

More Historic Weather Station data

Upgrade to MSW Pro to gain access to the past 30 days of data for over 8000 Wavebouys and Weather Stations around the globe.

Join Pro

Comparision Forecast

View Surf forecast
   
Thu 12/18 2:54pm 6 14 mph 1010.3mb 44f 41f
2:42pm 9 15 mph 1010.2mb 45f 41f
2:36pm 5 14 mph 1010.2mb 44f 41f
2:30pm 9 16 mph 1010.2mb 44f 41f
2:24pm 10 21 mph 1010.1mb 44f 41f
2:18pm 8 14 mph 1010.2mb 43f 41f
2:12pm 11 17 mph 1010.1mb 43f 41f
2:06pm 9 16 mph 1010.1mb 43f 41f
2:00pm 6 16 mph 1010.1mb 43f 41f
1:54pm 6 11 mph 1010mb 43f 41f
1:48pm 7 17 mph 1010mb 43f 41f
1:42pm 8 17 mph 1009.8mb 43f 41f
1:36pm 10 16 mph 1009.8mb 44f 41f
1:30pm 8 16 mph 1009.9mb 43f 41f
1:24pm 8 17 mph 1009.9mb 43f 41f
1:18pm 13 20 mph 1009.9mb 43f 40f
1:12pm 7 18 mph 1009.9mb 43f 41f
1:06pm 9 22 mph 1009.9mb 43f 41f
1:00pm 7 10 mph 1010mb 43f 41f
12:54pm 7 11 mph 1010mb 43f 41f
12:48pm 6 14 mph 1010.1mb 43f 41f
12:42pm 5 10 mph 1010mb 43f 41f
12:36pm 8 15 mph 1010.1mb 43f 42f
12:30pm 6 15 mph 1010.1mb 43f 41f
12:24pm 9 14 mph 1010.2mb 43f 41f
12:18pm 8 17 mph 1010.3mb 43f 42f
12:12pm 11 22 mph 1010.3mb 43f 41f
12:06pm 13 21 mph 1010.3mb 43f 41f
12:00pm 11 21 mph 1010.4mb 43f 41f
11:54am 8 21 mph 1010.5mb 43f 41f
11:48am 11 20 mph 1010.5mb 43f 40f
11:42am 7 10 mph 1010.6mb 43f 40f
11:36am 7 16 mph 1010.7mb 43f 40f
11:30am 8 21 mph 1010.8mb 43f 40f
11:24am 9 18 mph 1010.9mb 43f 40f
11:18am 11 21 mph 1010.9mb 43f 40f
11:12am 9 17 mph 1011mb 43f 40f
11:06am 9 20 mph 1011.1mb 44f 40f
11:00am 6 13 mph 1011.2mb 44f 40f
10:54am 9 22 mph 1011.1mb 44f 40f
10:48am 11 23 mph 1011.1mb 44f 40f
10:42am 9 15 mph 1011mb 44f 40f
10:36am 8 24 mph 1011.1mb 45f 40f
10:30am 9 14 mph 1011.1mb 45f 40f
10:24am 11 17 mph 1011.1mb 46f 40f
10:18am 7 14 mph 1011.2mb 46f 40f
10:12am 9 18 mph 1011.2mb 46f 40f
10:06am 8 15 mph 1011.2mb 46f 40f
10:00am 10 20 mph 1011.1mb 46f 40f
9:54am 10 20 mph 1011mb 46f 40f
9:48am 6 14 mph 1010.9mb 46f 40f
9:42am 6 17 mph 1010.9mb 46f 40f
9:36am 8 11 mph 1010.8mb 47f 39f
9:30am 9 14 mph 1010.7mb 47f 39f
9:24am 7 16 mph 1010.8mb 47f 39f
9:18am 7 15 mph 1010.6mb 47f 39f
9:12am 3 11 mph 1010.5mb 47f 39f
9:06am 5 15 mph 1010.5mb 47f 39f
8:54am 9 15 mph 1010.5mb 47f 39f
8:48am 10 17 mph 1010.4mb 47f 38f
8:42am 6 16 mph 1010.4mb 47f 39f
8:30am 8 15 mph 1010.4mb 47f 38f
8:24am 6 13 mph 1010.4mb 47f 38f
8:18am 8 13 mph 1010.3mb 47f 38f
8:12am 8 14 mph 1010.2mb 47f 38f
8:06am 7 14 mph 1010.2mb 47f 38f
8:00am 7 14 mph 1010.1mb 47f 37f
7:54am 6 14 mph 1010.1mb 47f 37f
7:48am 6 13 mph 1010mb 47f 37f
7:42am 8 14 mph 1009.8mb 47f 37f
7:36am 6 13 mph 1009.8mb 47f 37f
7:30am 8 14 mph 1009.7mb 47f 37f
7:24am 7 13 mph 1009.7mb 47f 37f
7:18am 3 13 mph 1009.6mb 47f 37f
7:12am 10 16 mph 1009.6mb 47f 37f
7:06am 5 13 mph 1009.6mb 47f 37f
7:00am 8 15 mph 1009.6mb 47f 37f
6:54am 5 16 mph 1009.6mb 47f 38f
6:48am 9 15 mph 1009.7mb 47f 38f
6:42am 7 14 mph 1009.7mb 47f 38f
6:36am 8 14 mph 1009.6mb 47f 38f
6:30am 7 15 mph 1009.6mb 47f 38f
6:24am 9 14 mph 1009.5mb 47f 38f
6:18am 7 13 mph 1009.5mb 47f 38f
6:12am 8 16 mph 1009.3mb 47f 38f
6:06am 7 15 mph 1009.2mb 47f 38f
6:00am 3 13 mph 1009.2mb 47f 38f
5:54am 6 10 mph 1009.3mb 47f 38f
5:48am 5 14 mph 1009.2mb 47f 39f
5:42am 8 13 mph 1009.1mb 47f 39f
5:36am 6 15 mph 1009mb 47f 39f
5:30am 7 10 mph 1009mb 47f 39f
5:24am 7 11 mph 1008.9mb 47f 39f
5:18am 7 16 mph 1008.9mb 47f 39f
5:12am 7 13 mph 1008.9mb 47f 39f
5:06am 6 10 mph 1008.8mb 47f 39f
5:00am 6 13 mph 1008.6mb 47f 39f
4:54am 8 13 mph 1008.6mb 47f 39f
4:48am 7 13 mph 1008.7mb 47f 39f
4:42am 6 11 mph 1008.7mb 47f 39f
4:36am 8 14 mph 1008.6mb 47f 39f
4:30am 8 13 mph 1008.6mb 47f 39f
4:24am 8 14 mph 1008.6mb 47f 39f
4:18am 7 11 mph 1008.6mb 47f 39f
4:12am 6 13 mph 1008.6mb 47f 39f
4:06am 3 10 mph 1008.6mb 47f 39f
4:00am 7 11 mph 1008.5mb 47f 39f
3:54am 6 13 mph 1008.4mb 47f 39f
3:48am 6 14 mph 1008.5mb 47f 39f
3:42am 5 10 mph 1008.5mb 47f 39f
3:36am 3 9 mph 1008.5mb 47f 39f
3:30am 7 11 mph 1008.6mb 47f 39f
3:24am 6 10 mph 1008.6mb 47f 39f
3:18am 5 13 mph 1008.6mb 47f 39f
3:12am 8 11 mph 1008.6mb 47f 39f
3:06am 3 10 mph 1008.5mb 47f 39f
3:00am 5 8 mph 1008.5mb 47f 39f
2:54am 7 11 mph 1008.4mb 47f 39f
2:48am 7 11 mph 1008.3mb 47f 39f
2:42am 6 9 mph 1008.2mb 47f 38f
2:36am 1 10 mph 1008.3mb 47f 38f
2:30am 2 6 mph 1008.3mb 47f 38f
2:24am 3 8 mph 1008.2mb 47f 38f
2:18am 6 10 mph 1008.1mb 47f 38f
2:12am 6 9 mph 1008.1mb 47f 38f
2:06am 6 11 mph 1008.1mb 47f 38f
2:00am 5 8 mph 1008.1mb 47f 38f
1:54am 3 8 mph 1008.3mb 47f 38f
1:48am 6 8 mph 1008.3mb 47f 38f
1:42am 6 9 mph 1008.3mb 47f 38f
1:36am 3 9 mph 1008.2mb 47f 38f
1:30am 6 9 mph 1008.2mb 47f 38f
1:24am 6 13 mph 1008.2mb 47f 38f
1:18am 7 10 mph 1008.3mb 47f 38f
1:12am 3 9 mph 1008.3mb 47f 38f
1:06am 2 8 mph 1008.4mb 47f 38f
1:00am 5 7 mph 1008.3mb 47f 38f
12:54am 3 6 mph 1008.3mb 47f 38f
12:48am 3 6 mph 1008.3mb 47f 38f
12:42am 2 6 mph 1008.4mb 47f 38f
12:36am 2 3 mph 1008.4mb 47f 38f
12:30am 1 3 mph 1008.4mb 47f 38f
12:24am 2 6 mph 1008.4mb 47f 39f
12:18am 2 5 mph 1008.6mb 47f 39f
12:12am  -  5 mph 1008.7mb 47f 39f
12:06am 2 6 mph 1008.7mb 47f 39f
12:00am 2 6 mph 1008.7mb 47f 39f
Wed 12/17 11:54pm 1 3 mph 1008.7mb 47f 40f
11:48pm 2 6 mph 1008.7mb 47f 40f
11:42pm 2 7 mph 1008.7mb 47f 40f
11:36pm 3 7 mph 1008.7mb 47f 40f
11:30pm 5 8 mph 1008.6mb 46f 40f
11:24pm 3 8 mph 1008.7mb 46f 41f
11:18pm 3 8 mph 1008.7mb 46f 41f
11:12pm 5 9 mph 1008.8mb 46f 41f
11:06pm 5 7 mph 1008.8mb 47f 41f
11:00pm 3 10 mph 1008.8mb 47f 41f
10:54pm 5 8 mph 1008.7mb 47f 41f
10:48pm 5 13 mph 1008.6mb 47f 42f
10:42pm 5 11 mph 1008.6mb 47f 42f
10:36pm 2 7 mph 1008.6mb 47f 42f
10:30pm 6 10 mph 1008.6mb 47f 42f
10:24pm 3 6 mph 1008.6mb 47f 42f
10:18pm 6 8 mph 1008.5mb 47f 42f
10:12pm 3 7 mph 1008.6mb 47f 42f
10:06pm 6 13 mph 1008.7mb 47f 43f
10:00pm 6 10 mph 1008.7mb 47f 43f
9:54pm 7 13 mph 1008.7mb 47f 43f
9:48pm 3 16 mph 1008.7mb 47f 43f
9:42pm 10 16 mph 1008.7mb 47f 44f
9:36pm 6 9 mph 1008.7mb 47f 44f
9:30pm 6 14 mph 1008.6mb 47f 44f
9:24pm 5 13 mph 1008.6mb 47f 44f
9:18pm 6 10 mph 1008.5mb 47f 44f
9:12pm 3 13 mph 1008.4mb 47f 44f
9:06pm 5 13 mph 1008.3mb 47f 44f
9:00pm 3 6 mph 1008.2mb 47f 44f
8:54pm 5 8 mph 1008.2mb 47f 44f
8:48pm 7 10 mph 1008.2mb 47f 45f
8:42pm 6 11 mph 1008.2mb 47f 45f
8:36pm 3 9 mph 1008.2mb 47f 45f
8:30pm 5 13 mph 1008.2mb 47f 45f
8:24pm 6 10 mph 1008.2mb 47f 45f
8:18pm 5 13 mph 1008.1mb 47f 45f
8:12pm 6 14 mph 1008.1mb 47f 45f
8:06pm 5 14 mph 1008.1mb 47f 45f
8:00pm 5 9 mph 1008.1mb 47f 45f
7:54pm 5 9 mph 1008.1mb 47f 46f
7:48pm 5 10 mph 1008.1mb 47f 45f
7:42pm 6 9 mph 1008.1mb 47f 46f
7:36pm 6 10 mph 1008.2mb 47f 46f
7:30pm 6 9 mph 1008.3mb 47f 46f
7:24pm 6 13 mph 1008.2mb 47f 46f
7:18pm 6 9 mph 1008.2mb 47f 46f
7:12pm 3 11 mph 1008.2mb 47f 46f
6:54pm 5 10 mph 1008.2mb 47f 47f
6:48pm 3 10 mph 1008.2mb 47f 47f
6:42pm 6 10 mph 1008.1mb 47f 47f
6:36pm 6 9 mph 1008.2mb 47f 47f
6:30pm 6 11 mph 1008.2mb 47f 48f
6:24pm 5 7 mph 1008.1mb 47f 48f
6:18pm 5 7 mph 1008mb 47f 48f
6:12pm 3 8 mph 1008mb 47f 48f
6:06pm 5 7 mph 1008mb 47f 48f
6:00pm 5 7 mph 1007.9mb 47f 48f
5:54pm 6 8 mph 1008mb 47f 48f
5:48pm 6 9 mph 1008mb 47f 48f
5:42pm 6 8 mph 1007.9mb 47f 48f
5:36pm 7 9 mph 1007.9mb 47f 48f
5:30pm 7 13 mph 1007.9mb 47f 48f
5:24pm 5 9 mph 1007.9mb 47f 48f
5:18pm 3 10 mph 1007.7mb 47f 48f
5:12pm 3 13 mph 1007.7mb 47f 49f
5:06pm 5 11 mph 1007.7mb 47f 49f
5:00pm 7 11 mph 1007.6mb 47f 49f
4:54pm 5 7 mph 1007.6mb 47f 49f
4:48pm 3 7 mph 1007.5mb 47f 48f
4:42pm 3 8 mph 1007.5mb 47f 49f
4:36pm 6 9 mph 1007.5mb 47f 49f
4:30pm 6 11 mph 1007.4mb 47f 49f
4:24pm 3 10 mph 1007.3mb 47f 49f
4:18pm 5 8 mph 1007.2mb 47f 49f
4:12pm 5 10 mph 1007.1mb 47f 49f
4:00pm 5 14 mph 1006.9mb 47f 49f
3:48pm 3 9 mph 1006.9mb 47f 50f
3:42pm 5 8 mph 1006.9mb 47f 50f
3:36pm 6 9 mph 1006.8mb 47f 50f
3:30pm 8 14 mph 1006.7mb 47f 51f
3:24pm 3 10 mph 1006.7mb 47f 51f
3:12pm 5 10 mph 1006.6mb 47f 51f
3:00pm 5 11 mph 1006.4mb 47f 51f
2:54pm 6 14 mph 1006.3mb 47f 51f
2:48pm 7 16 mph 1006.3mb 47f 51f
2:42pm 8 10 mph 1006.2mb 47f 51f
2:36pm 5 15 mph 1006.1mb 47f 51f
2:30pm 5 10 mph 1006.1mb 47f 51f
2:24pm 8 14 mph 1006mb 47f 51f
2:12pm 6 10 mph 1006mb 46f 52f
2:06pm 5 13 mph 1006mb 46f 52f
2:00pm 6 8 mph 1006mb 47f 53f
1:54pm 5 8 mph 1006mb 47f 53f
1:48pm 7 15 mph 1005.9mb 46f 52f
1:42pm 5 9 mph 1005.9mb 47f 51f
1:36pm 6 10 mph 1006mb 46f 51f
1:30pm 7 11 mph 1006.1mb 46f 51f
1:24pm 5 11 mph 1006.1mb 46f 50f
1:18pm 6 9 mph 1006.2mb 46f 51f
1:06pm 5 8 mph 1006.2mb 46f 51f
12:54pm 7 15 mph 1006.4mb 46f 51f
12:48pm 6 17 mph 1006.3mb 46f 51f
12:42pm 6 11 mph 1006.4mb 46f 50f
12:36pm 7 17 mph 1006.4mb 46f 51f
12:30pm 10 16 mph 1006.4mb 46f 51f
12:24pm 6 14 mph 1006.4mb 45f 50f
12:18pm 3 11 mph 1006.5mb 46f -
12:12pm 6 9 mph 1006.5mb 45f -
12:06pm 3 9 mph 1006.6mb 46f -
12:00pm 5 11 mph 1006.6mb 46f 50f
11:54am 7 16 mph 1006.7mb 46f 50f
11:48am 6 11 mph 1006.8mb 46f 50f
11:42am 7 11 mph 1006.8mb 46f 49f
11:36am 6 11 mph 1006.8mb 46f 50f
11:24am 6 13 mph 1006.9mb 46f 49f
11:18am 6 10 mph 1007mb 46f 49f
11:12am 3 9 mph 1007mb 46f 49f
11:06am 6 10 mph 1007.1mb 46f 48f
11:00am 8 14 mph 1007.3mb 46f 48f
10:54am 8 13 mph 1007.3mb 46f 48f
10:48am 7 10 mph 1007.2mb 46f 49f
10:42am 7 10 mph 1007.1mb 46f 49f
10:36am 5 9 mph 1007.1mb 46f 49f
10:30am 2 7 mph 1007.2mb 46f 49f
10:24am 3 7 mph 1007.3mb 46f 48f
10:18am  -  3 mph 1007.3mb 47f 47f
10:06am  -  5 mph 1007.4mb 47f 47f
10:00am  -  3 mph 1007.4mb 47f 46f
9:54am 3 7 mph 1007.4mb 47f 46f
9:48am 3 7 mph 1007.5mb 47f 45f
9:42am 5 7 mph 1007.6mb 47f 45f
9:36am 3 6 mph 1007.7mb 47f 44f
9:30am 3 6 mph 1007.7mb 47f 44f
9:24am 3 5 mph 1007.7mb 47f 44f
9:18am 5 9 mph 1007.7mb 47f 44f
9:12am 3 6 mph 1007.8mb 47f 44f
9:06am  -  5 mph 1007.6mb 47f 43f
9:00am 1 7 mph 1007.5mb 47f 43f
8:54am 2 5 mph 1007.5mb 47f 43f
8:48am 3 7 mph 1007.5mb 47f 43f
8:42am 3 6 mph 1007.5mb 47f 43f
8:36am 3 7 mph 1007.4mb 47f 42f
8:24am 5 7 mph 1007.2mb 47f 42f
8:18am 3 6 mph 1007.2mb 47f 42f
8:12am 2 5 mph 1007.3mb 47f 42f
8:06am 3 5 mph 1007.3mb 47f 42f
8:00am 1 2 mph 1007.2mb 47f 43f
7:54am  -  3 mph 1007.2mb 47f 42f
7:48am 2 6 mph 1007.2mb 47f 42f
7:42am 2 3 mph 1007mb 47f 42f
7:36am 2 6 mph 1007mb 47f 42f
7:30am 5 6 mph 1007mb 47f 42f
7:24am 5 6 mph 1006.9mb 47f 42f
7:18am 3 6 mph 1007mb 47f 42f
7:12am 3 6 mph 1007.1mb 47f 42f
7:06am 6 7 mph 1007.1mb 47f 42f
7:00am 3 7 mph 1007.2mb 47f 42f
6:48am 2 6 mph 1007.1mb 47f 42f
6:42am 3 6 mph 1007.1mb 47f 42f
6:36am 2 6 mph 1007.1mb 47f 42f
6:30am 3 6 mph 1007.1mb 47f -
6:24am 3 5 mph 1007.2mb 47f -
6:18am 5 7 mph 1007.3mb 47f -
6:12am 5 7 mph 1007.2mb 47f 42f
6:06am 5 7 mph 1007.2mb 47f 42f
5:54am 5 7 mph 1007.3mb 47f 42f
5:48am 3 5 mph 1007.3mb 47f 42f
5:42am 1 5 mph 1007.4mb 47f 42f
5:36am 1 3 mph 1007.4mb 47f 42f
5:30am 2 6 mph 1007.3mb 47f 42f
5:24am 5 7 mph 1007.2mb 47f 42f
5:18am 5 6 mph 1007.2mb 47f 42f
5:12am 2 7 mph 1007.2mb 47f 42f
5:06am 3 6 mph 1007.3mb 47f 42f
5:00am 3 6 mph 1007.3mb 47f 42f
4:54am 3 6 mph 1007.2mb 47f 42f
4:48am 3 6 mph 1007.1mb 47f 42f
4:42am 5 6 mph 1007.1mb 47f 42f
4:36am 6 7 mph 1007.1mb 47f 41f
4:30am 3 8 mph 1007.1mb 47f 41f
4:24am 6 9 mph 1007.1mb 47f 41f
4:12am 5 8 mph 1007.1mb 47f 41f
4:00am 7 11 mph 1007.1mb 47f 41f
3:54am 10 15 mph 1007.1mb 47f 41f
3:48am 11 15 mph 1006.9mb 47f 41f
3:42am 9 14 mph 1006.8mb 47f 41f
3:36am 6 11 mph 1007mb 47f 41f
3:30am 6 11 mph 1007.1mb 47f 41f
3:18am 6 10 mph 1007.3mb 47f 41f
3:12am 6 10 mph 1007.3mb 47f 41f
3:06am 3 7 mph 1007.5mb 47f 41f
3:00am 6 10 mph 1007.8mb 47f 41f
2:54am 7 10 mph 1008mb 47f 41f
2:48am 9 13 mph 1008mb 47f 41f
2:42am 5 13 mph 1008mb 47f 41f
2:36am 7 10 mph 1007.8mb 47f 41f
2:30am 9 14 mph 1008mb 47f 41f
2:24am 9 13 mph 1008.3mb 47f 41f
2:18am 6 11 mph 1008.2mb 47f 41f
2:12am 6 10 mph 1008.1mb 47f 41f
2:06am 9 14 mph 1008.1mb 47f 41f
2:00am 9 14 mph 1008.2mb 47f 41f
1:54am 10 14 mph 1008.2mb 47f 41f
1:48am 9 13 mph 1008.2mb 47f 41f
1:42am 9 13 mph 1008.4mb 47f 41f
1:36am 10 14 mph 1008.6mb 47f 41f
1:30am 9 13 mph 1008.8mb 47f 41f
1:24am 7 10 mph 1008.9mb 47f 41f
1:18am 6 10 mph 1009.2mb 47f 41f
1:12am 7 13 mph 1009.2mb 47f 41f
1:06am 8 13 mph 1009.2mb 47f 41f
1:00am 6 10 mph 1009.3mb 47f 41f
12:54am 8 11 mph 1009.3mb 47f 41f
12:48am 8 11 mph 1009.5mb 47f 41f
12:42am 7 10 mph 1009.7mb 47f 41f
12:36am 7 10 mph 1009.9mb 47f 41f
12:30am 8 13 mph 1010mb 47f 41f
12:24am 10 11 mph 1010.2mb 47f 41f
12:18am 9 10 mph 1010.5mb 47f 41f
12:12am 8 10 mph 1010.7mb 47f 41f
12:06am 8 10 mph 1010.9mb 47f 41f
12:00am 7 9 mph 1011.1mb 47f 41f
Tue 12/16 11:54pm 6 8 mph 1011.2mb 47f 41f
11:48pm 7 9 mph 1011.3mb 47f 41f
11:42pm 3 9 mph 1011.6mb 47f 41f
11:36pm 5 8 mph 1011.7mb 47f 41f
11:30pm 6 9 mph 1011.7mb 47f 42f
11:24pm 6 9 mph 1011.7mb 47f 41f
11:18pm 5 7 mph 1011.8mb 47f 41f
11:12pm 6 13 mph 1011.6mb 47f 42f
11:06pm 9 11 mph 1011.5mb 47f 41f
11:00pm 10 13 mph 1011.5mb 47f 41f
10:54pm 10 13 mph 1011.5mb 47f 42f
10:48pm 5 10 mph 1011.7mb 47f 42f
10:42pm 8 11 mph 1011.9mb 47f 42f
10:36pm 5 8 mph 1011.8mb 47f 41f
10:30pm 5 10 mph 1011.9mb 47f 41f
10:24pm 7 10 mph 1011.9mb 47f 42f
10:18pm 7 9 mph 1012mb 47f 42f
10:12pm 7 11 mph 1011.9mb 46f 41f
10:06pm 8 11 mph 1011.8mb 47f 42f
10:00pm 6 9 mph 1012mb 47f 42f
9:54pm 6 10 mph 1012.2mb 47f 42f
9:48pm 8 9 mph 1012.2mb 47f 42f
9:42pm 7 9 mph 1012.2mb 47f 42f
9:36pm 7 10 mph 1012.3mb 47f 42f
9:30pm 7 9 mph 1012.3mb - 42f
9:24pm 7 9 mph 1012.4mb - 43f
9:18pm 6 8 mph 1012.5mb 47f 43f
9:12pm 7 9 mph 1012.6mb 47f 44f
9:06pm 5 8 mph 1012.7mb 47f 44f
9:00pm 3 6 mph 1012.8mb 47f 43f
8:54pm 3 5 mph 1013mb 47f 43f
8:48pm 3 6 mph 1013.2mb 47f 43f
8:42pm 3 6 mph 1013.2mb 47f 43f
8:36pm 6 7 mph 1013.2mb 47f 43f
8:30pm 5 6 mph 1013.2mb 47f 43f
8:24pm 3 6 mph 1013.3mb 47f 43f
8:18pm 2 5 mph 1013.4mb 47f 43f
8:12pm 2 5 mph 1013.6mb 47f 43f
8:06pm 3 5 mph 1013.7mb 47f 43f
8:00pm 5 6 mph 1013.8mb 47f 43f
7:54pm 5 6 mph 1013.8mb 47f 43f
7:48pm 5 7 mph 1013.9mb 47f 43f
7:42pm 5 7 mph 1013.9mb 47f 43f
7:36pm 5 6 mph 1014mb 47f 43f
7:30pm 3 6 mph 1014.1mb 47f 44f
7:24pm 2 5 mph 1014.2mb 47f 45f
7:18pm 2 5 mph 1014.2mb 47f 44f
7:12pm 5 6 mph 1014.3mb 47f 45f
7:06pm 2 6 mph 1014.4mb 47f 44f
7:00pm 2 6 mph 1014.6mb 47f 44f
6:54pm 3 7 mph 1014.3mb 47f 44f
6:48pm 6 10 mph 1014.3mb 47f 44f
6:42pm 6 9 mph 1014.2mb 47f 44f
6:36pm 8 13 mph 1014mb 47f 44f
6:30pm 7 10 mph 1014mb 47f 44f
6:24pm 8 10 mph 1014.1mb 47f 44f
6:18pm 6 9 mph 1014.2mb 47f 43f
6:12pm 2 5 mph 1014.4mb 47f 42f
6:06pm 3 6 mph 1014.6mb 47f 41f
5:54pm 3 6 mph 1014.8mb 47f 41f
5:48pm 6 7 mph 1014.8mb 47f 40f
5:42pm 3 5 mph 1014.9mb 47f 41f
5:36pm 3 5 mph 1015.1mb 47f 41f
5:30pm 3 6 mph 1015.2mb 47f 41f
5:24pm 5 6 mph 1015.3mb 47f 41f
5:18pm 3 6 mph 1015.4mb 47f 41f
5:12pm 5 7 mph 1015.4mb 47f 41f
5:06pm 5 6 mph 1015.4mb 47f 41f
5:00pm 5 7 mph 1015.5mb 47f 40f
4:54pm 5 6 mph 1015.6mb 47f 40f
4:48pm 6 7 mph 1015.7mb 47f 40f
4:42pm 6 8 mph 1015.9mb 47f 40f
4:36pm 2 6 mph 1016mb 47f 40f
4:30pm 3 5 mph 1016.1mb 47f 40f
4:24pm 3 6 mph 1016.1mb 47f 40f
4:18pm 5 7 mph 1015.9mb 47f -
4:12pm 6 7 mph 1015.8mb 47f 40f
4:06pm 5 7 mph 1015.9mb 47f 40f
4:00pm 3 6 mph 1016.1mb 47f 40f
3:54pm 5 8 mph 1016.1mb 47f 40f
3:48pm 6 8 mph 1016.1mb 47f 40f
3:42pm 6 7 mph 1016.1mb 47f 40f
3:36pm 6 7 mph 1016.4mb 47f 40f
3:30pm 3 6 mph 1016.5mb 47f 40f
3:24pm 5 6 mph 1016.6mb 47f 40f
3:18pm 6 7 mph 1016.6mb 47f 40f
3:12pm 2 7 mph 1016.6mb 47f 40f
3:06pm 6 7 mph 1016.7mb 47f 40f
3:00pm 5 7 mph 1016.6mb 47f 40f
2:54pm 6
mph
1016.5mb 47f 39f
2:48pm 5 7 mph 1016.5mb 47f 39f
2:42pm 6 7 mph 1016.4mb 47f 39f
2:36pm 5 7 mph 1016.3mb 47f 39f
2:30pm 5 8 mph 1016.3mb 47f 39f
2:24pm 7 8 mph 1016.3mb 47f 39f
2:18pm 3 7 mph 1016.4mb 47f 39f
2:12pm 6 8 mph 1016.5mb 47f 39f
2:06pm 7 8 mph 1016.5mb 47f 39f
2:00pm 7 9 mph 1016.6mb 47f 38f
1:54pm 6 8 mph 1016.7mb 47f 38f
1:48pm 5 8 mph 1016.9mb 47f 38f
1:42pm 6 8 mph 1016.9mb 47f 38f
1:36pm 5 7 mph 1017mb 47f 38f
1:30pm 5 8 mph 1016.9mb 47f 38f
1:24pm 6 9 mph 1016.8mb 47f 38f
1:18pm 7 9 mph 1016.7mb 47f 38f
1:12pm 6 9 mph 1016.8mb 47f 38f
1:06pm 8 10 mph 1016.9mb 47f 38f
1:00pm 8 10 mph 1016.9mb 47f 38f
12:54pm 8 10 mph 1017mb 47f 38f
12:48pm 6 8 mph 1017.3mb 47f 38f
12:42pm 7 9 mph 1017.4mb 47f 37f
12:36pm 3 9 mph 1017.5mb 47f 37f
12:30pm 7 10 mph 1017.4mb 46f 37f
12:24pm 7 9 mph 1017.5mb 46f 37f
12:18pm 7 9 mph 1017.6mb 46f 37f
12:12pm 6 9 mph 1017.8mb 46f 37f
12:06pm 7 9 mph 1017.8mb 46f 37f
12:00pm 5 8 mph 1017.9mb 46f 37f
11:54am 7 9 mph 1017.9mb 47f 37f
11:48am 7 10 mph 1018.2mb 47f 37f
11:42am 8 10 mph 1018.3mb 47f 37f
11:36am 7 9 mph 1018.5mb 47f 37f
11:30am 6 8 mph 1018.6mb 47f 36f
11:24am 8 11 mph 1018.6mb 47f 36f
11:18am 8 10 mph 1018.7mb 47f 36f
11:12am 8 10 mph 1018.8mb 47f 36f
11:06am 8 10 mph 1018.9mb 47f 36f
11:00am 7 10 mph 1019mb 47f 36f
10:54am 9 10 mph 1019mb 47f 36f
10:48am 7 9 mph 1019.1mb 47f 36f
10:42am 8 9 mph 1019.2mb 47f 36f
10:36am 6 8 mph 1019.2mb 47f 36f
10:30am 6 8 mph 1019.3mb 47f 35f
10:24am 5 8 mph 1019.3mb 47f 35f
10:18am 6 9 mph 1019.3mb 47f 35f
10:12am 6 9 mph 1019.2mb 47f 35f
10:06am 6 9 mph 1019.3mb 47f 35f
10:00am 7 9 mph 1019.3mb 47f 35f
9:54am 7 9 mph 1019.5mb 47f 35f
9:48am 7 8 mph 1019.8mb 47f 35f
9:42am 6 9 mph 1019.9mb 47f 35f
9:36am 6 9 mph 1020mb 47f 35f
9:30am 6 9 mph 1020.1mb 47f 35f
9:24am 8 10 mph 1020.2mb 47f 34f
9:18am 9 10 mph 1020.2mb 47f 34f
9:12am 7 9 mph 1020.1mb 47f 34f
9:06am 7 10 mph 1020.1mb 47f 34f
9:00am 6 9 mph 1020mb 47f 34f
8:54am 6 9 mph 1020mb 47f 34f
8:48am 8 10 mph 1019.8mb 47f 34f
8:42am 6 8 mph 1019.8mb 47f 34f
8:36am 6 9 mph 1019.9mb 47f 34f
8:30am 6 9 mph 1019.9mb 47f 34f
8:24am 6 9 mph 1019.8mb 47f 34f
8:18am 7 9 mph 1019.8mb 47f 34f
8:12am 7 8 mph 1019.7mb 47f 34f
8:06am 7 8 mph 1019.8mb 47f 34f
8:00am 6 9 mph 1019.7mb 47f 34f
7:54am 8 10 mph 1019.7mb 47f 34f
7:48am 7 9 mph 1019.6mb 47f 34f
7:42am 8 9 mph 1019.6mb 47f 34f
7:36am 7 8 mph 1019.7mb 47f 34f
7:30am 6 8 mph 1019.7mb 47f 34f
7:24am 3 7 mph 1019.7mb 47f 33f
7:18am 3 7 mph 1019.7mb 47f 33f
7:12am 5 7 mph 1019.6mb 47f 33f
7:06am 5 7 mph 1019.6mb 47f 33f
7:00am 6 8 mph 1019.5mb 47f 33f
6:54am 5 8 mph 1019.5mb 47f 33f
6:48am 5 8 mph 1019.6mb 47f 33f
6:42am 6 8 mph 1019.6mb 47f 33f
6:36am 7 9 mph 1019.7mb 47f 33f
6:30am 7 10 mph 1019.7mb 47f 33f
6:24am 8 9 mph 1019.7mb 47f 33f
6:18am 7 9 mph 1019.7mb 47f 33f
6:12am 7 8 mph 1019.7mb 47f 33f
6:06am 6 8 mph 1019.7mb 47f 33f
6:00am 5 8 mph 1019.5mb 47f 33f
5:54am 6 8 mph 1019.5mb 47f 33f
5:48am 5 8 mph 1019.4mb 47f 33f
5:42am 5 8 mph 1019.4mb 47f 33f
5:36am 7 9 mph 1019.4mb 47f 33f
5:30am 7 9 mph 1019.4mb 47f 33f
5:24am 8 9 mph 1019.5mb 47f 33f
5:18am 7 8 mph 1019.5mb 47f 33f
5:12am 5 9 mph 1019.5mb 47f 33f
5:06am 7 9 mph 1019.5mb 47f 33f
4:54am 8 10 mph 1019.3mb 47f 33f
4:48am 7 9 mph 1019.2mb 47f 33f
4:42am 7 9 mph 1019.2mb 47f 33f
4:36am 8 11 mph 1019.1mb 47f 33f
4:30am 7 10 mph 1019mb 47f 32f
4:24am 7 10 mph 1018.9mb 47f 32f
4:18am 6 9 mph 1019mb 47f 32f
4:12am 6 8 mph 1019mb 47f 32f
4:00am 7 8 mph 1019.1mb 47f 32f
3:54am 6 8 mph 1019.1mb 47f 32f
3:48am 5 8 mph 1019.3mb 47f 32f
3:42am 7 9 mph 1019.3mb 47f 32f
3:36am 5 8 mph 1019.5mb 47f 32f
3:30am 6 8 mph 1019.6mb 47f 32f
3:24am 6 9 mph 1019.6mb 47f 32f
3:18am 6 9 mph 1019.6mb 47f 32f
3:12am 7 9 mph 1019.7mb 47f 32f
3:06am 8 10 mph 1019.8mb 47f 32f
3:00am 7 10 mph 1019.8mb 47f 32f
2:54am 7 10 mph 1019.8mb 47f 32f
2:48am 6 9 mph 1019.9mb 47f 32f
2:42am 6 9 mph 1019.8mb 47f 32f
2:36am 7 8 mph 1019.9mb 47f 32f
2:30am 6 8 mph 1019.9mb 47f 32f
2:24am 7 8 mph 1019.8mb 47f 32f
2:18am 7 9 mph 1019.9mb 47f 32f
2:12am 7 9 mph 1019.9mb 47f 32f
2:06am 7 9 mph 1020mb 47f 32f
2:00am 8 9 mph 1020mb 47f 31f
1:54am 7 9 mph 1020.1mb 47f 31f
1:48am 7 9 mph 1020mb 46f 31f
1:42am 6 9 mph 1020mb 46f 31f
1:36am 6 8 mph 1019.9mb 46f 31f
1:30am 7 8 mph 1019.9mb 46f 31f
1:24am 6 8 mph 1019.7mb 46f 31f
1:18am 6 9 mph 1019.8mb 46f 31f
1:12am 7 9 mph 1019.7mb 46f 31f
1:06am 7 9 mph 1019.7mb 46f 31f
1:00am 7 9 mph 1019.7mb 46f 31f
12:54am 7 9 mph 1019.8mb 46f 31f
12:48am 8 9 mph 1019.8mb 46f 31f
12:42am 8 9 mph 1019.8mb 46f 31f
12:36am 7 9 mph 1019.8mb 46f 31f
12:30am 7 8 mph 1019.8mb 46f 31f
12:24am 6 9 mph 1019.6mb 46f 31f
12:18am 7 8 mph 1019.5mb 46f 31f
12:12am 6 8 mph 1019.6mb 46f 31f
12:06am 6 8 mph 1019.6mb 46f 31f
12:00am 7 8 mph 1019.8mb 46f 31f
Mon 12/15 11:54pm 6 9 mph 1019.9mb 46f 31f
11:48pm 8 9 mph 1019.9mb 46f 32f
11:42pm 7 9 mph 1019.9mb 46f 32f
11:36pm 7 8 mph 1019.9mb 46f 32f
11:30pm 7 8 mph 1020mb 46f 32f
11:24pm 6 7 mph 1020mb 46f 32f
11:18pm 5 8 mph 1020mb 46f 32f
11:12pm 6 7 mph 1020mb 46f 32f
11:06pm 6 7 mph 1019.9mb 46f 32f
11:00pm 5 6 mph 1019.9mb 46f 32f
10:54pm 3 6 mph 1019.8mb 46f 32f
10:48pm 5 7 mph 1019.8mb 46f 32f
10:42pm 6 7 mph 1019.7mb 46f 32f
10:36pm 6 7 mph 1019.7mb 46f 32f
10:30pm 5 7 mph 1019.7mb 46f 32f
10:24pm 3 5 mph 1019.7mb 46f 32f
10:18pm 5 6 mph 1019.7mb 46f 32f
10:12pm 3 6 mph 1019.6mb 46f 32f
10:06pm 5 6 mph 1019.6mb 46f 32f
10:00pm 3 6 mph 1019.5mb 46f 33f
9:54pm 3 6 mph 1019.5mb 46f 33f
9:48pm 3 6 mph 1019.6mb 46f 33f
9:42pm 5 6 mph 1019.5mb 46f 33f
9:36pm 5 6 mph 1019.5mb 46f 33f
9:30pm 3 7 mph 1019.4mb 46f 33f
9:24pm 6
mph
1019.4mb 46f 33f
9:18pm 5 6 mph 1019.4mb 46f 33f
9:12pm 5 6 mph 1019.3mb 46f 33f
9:06pm 5 6 mph 1019.4mb 46f 33f
9:00pm 5 6 mph 1019.5mb 46f 33f
8:54pm 3 5 mph 1019.6mb 46f 33f
8:48pm 2 3 mph 1019.5mb 46f 33f
8:42pm 2 3 mph 1019.5mb 46f 33f
8:36pm 3
mph
1019.4mb 46f 34f
8:30pm 2 5 mph 1019.3mb 46f 34f
8:24pm 5
mph
1019.2mb 47f 34f
8:18pm 3 5 mph 1019.2mb 47f 34f
8:12pm 3
mph
1019.2mb 47f 34f
8:06pm  -  3 mph 1019.2mb 47f 34f
8:00pm 3
mph
1019.2mb 47f 34f
7:54pm 3 6 mph 1019.1mb 47f 34f
7:48pm 5 6 mph 1019.2mb 47f 35f
7:42pm 3 5 mph 1019.2mb 47f 35f
7:36pm 5 6 mph 1019.2mb 47f 35f
7:30pm 3 5 mph 1019.2mb 47f 35f
7:24pm 5
mph
1019.2mb 47f 35f
7:18pm 3 5 mph 1019mb 47f 35f
6:54pm 2 3 mph 1018.9mb 47f 36f
6:48pm 2 5 mph 1018.9mb 47f 36f
6:42pm 5
mph
1018.8mb 47f 36f
6:36pm 2
mph
1018.7mb 47f 36f
6:30pm 1 2 mph 1018.6mb 47f 36f
6:24pm  -  mph 1018.6mb 47f 37f
6:18pm  -  mph 1018.6mb 47f 37f
6:12pm  -  mph 1018.6mb 47f 37f
6:06pm  -  mph 1018.5mb 47f 37f
5:54pm  -  mph 1018.4mb 47f 38f
5:48pm  -  mph 1018.3mb 47f 38f
5:42pm  -  1 mph 1018.2mb 48f 38f
5:36pm  -  1 mph 1018.2mb 48f 38f
5:30pm  -  mph 1018.1mb 48f 38f
5:24pm  -  2 mph 1018mb 48f 39f
5:18pm 2 3 mph 1018mb 48f 39f
5:12pm 2
mph
1017.8mb 48f 39f
5:06pm 3
mph
1017.7mb 48f 40f
5:00pm 3
mph
1017.6mb 48f 40f
4:54pm 2 5 mph 1017.4mb 48f 40f
4:48pm 3 5 mph 1017.4mb 48f 40f
4:42pm 3 5 mph 1017.3mb 48f 40f
4:36pm 3 6 mph 1017.3mb 48f 40f
4:30pm 3 6 mph 1017.2mb 47f 40f
4:24pm 3 6 mph 1017.1mb 47f 41f
4:18pm 5 6 mph 1017mb 48f 41f
4:12pm 5 6 mph 1016.9mb 48f 41f
4:06pm 5 7 mph 1016.8mb 48f 41f
4:00pm 5 6 mph 1016.8mb 48f 41f
3:54pm 3 6 mph 1016.8mb 48f 41f
3:48pm 6 7 mph 1016.7mb 47f 41f
3:42pm 5 7 mph 1016.8mb 48f 41f
3:36pm 6 8 mph 1016.8mb 48f 42f
3:30pm 6 8 mph 1016.8mb 48f 42f
3:24pm 8 9 mph 1016.7mb 48f 42f
3:18pm 7 9 mph 1016.7mb 47f 42f
3:12pm 8 9 mph 1016.6mb 47f 42f
3:06pm 8 9 mph 1016.6mb 47f 42f
3:00pm 7 9 mph 1016.5mb 47f 42f
2:54pm 8 9 mph 1016.4mb 47f 42f
2:48pm 7 9 mph 1016.3mb 47f 42f
2:42pm 8 9 mph 1016.3mb 48f 42f
2:36pm 8 9 mph 1016.2mb 47f 43f
2:30pm 8 9 mph 1016.1mb 47f 44f
2:24pm 8 9 mph 1016mb 47f 44f
2:12pm 7 9 mph 1016.1mb 47f 44f
2:06pm 8 9 mph 1016.1mb 47f 44f
2:00pm 9 10 mph 1016mb 47f 44f
1:54pm 8 10 mph 1016mb 47f 44f
1:48pm  -  2 mph 1016mb 47f 46f
1:42pm 2 3 mph 1015.9mb 47f 44f
1:36pm  -  5 mph 1015.9mb 47f 44f
1:30pm 2 3 mph 1015.8mb 47f 44f
1:24pm 1 3 mph 1015.8mb 47f 44f
1:18pm  -  3 mph 1015.8mb 47f 44f
1:12pm 2 3 mph 1015.7mb 47f 44f
1:06pm 2 6 mph 1015.7mb 47f 44f
1:00pm 2 3 mph 1015.7mb 48f 43f
12:54pm 2 3 mph 1015.8mb 48f 43f
12:48pm 2 5 mph 1015.9mb 48f 43f
12:42pm 3 5 mph 1015.8mb 48f 42f
12:36pm 2 5 mph 1015.9mb 48f 42f
12:30pm 2 5 mph 1016mb 47f 42f
12:24pm 2 6 mph 1016.1mb 47f 43f
12:18pm 1 2 mph 1016.2mb 47f 42f
12:12pm  -  2 mph 1016.3mb 47f 42f
12:06pm 2 5 mph 1016.3mb 47f 42f
12:00pm 3 5 mph 1016.4mb 47f 41f
11:54am 2 5 mph 1016.4mb 47f 41f
11:48am 3 5 mph 1016.4mb 47f 41f
11:42am 3 5 mph 1016.3mb 47f 41f
11:36am 2 5 mph 1016.4mb 47f 41f
11:30am 2 5 mph 1016.4mb 47f 41f
11:24am 2 5 mph 1016.4mb 47f 41f
11:18am 2 5 mph 1016.4mb 47f 40f
11:12am 3
mph
1016.5mb 47f 40f
11:06am 2 3 mph 1016.6mb 47f 40f
11:00am 2 3 mph 1016.6mb 47f 40f
10:54am  -  5 mph 1016.7mb 47f 40f
10:48am 2 6 mph 1016.7mb 47f 40f
10:42am 3 7 mph 1016.7mb 46f 40f
10:36am 2 6 mph 1016.7mb 46f 40f
10:30am 2 5 mph 1016.7mb 46f 40f
10:24am 2 6 mph 1016.6mb 47f 39f
10:18am 2 5 mph 1016.7mb 46f 39f
10:12am 2 6 mph 1016.7mb 46f 39f
10:06am 2 6 mph 1016.7mb 47f 39f
10:00am 2 3 mph 1016.7mb 47f 39f
9:54am 2 6 mph 1016.8mb 47f 39f
9:48am 2 6 mph 1016.8mb 47f 38f
9:42am 1 3 mph 1016.8mb 47f 38f
9:36am 2 3 mph 1016.8mb 47f 37f
9:30am 2 3 mph 1016.8mb 47f 37f
9:24am 3 7 mph 1016.8mb 47f 37f
9:18am  -  mph 1016.8mb 47f 37f
9:12am  -  mph 1016.9mb 47f 36f
9:06am  -  mph 1016.9mb 47f 36f
8:54am  -  3 mph 1016.7mb 47f 36f
8:48am  -  3 mph 1016.6mb 47f 35f
8:42am 2 3 mph 1016.6mb 47f 35f
8:36am  -  1 mph 1016.5mb 47f 35f
8:30am  -  1 mph 1016.5mb 47f 34f
8:24am  -  mph 1016.5mb 47f 33f
8:18am  -  2 mph 1016.4mb 47f 33f
8:12am  -  2 mph 1016.3mb 47f 33f
8:06am  -  1 mph 1016.2mb 47f 33f
8:00am  -  1 mph 1016.1mb 47f 32f
7:54am 2 3 mph 1016.1mb 47f 32f
7:48am 2 5 mph 1016.1mb 47f 32f
7:42am 2 5 mph 1016mb 47f 31f
7:36am  -  2 mph 1016mb 47f 31f
7:30am  -  mph 1015.8mb 47f 30f
7:24am  -  mph 1015.8mb 48f 30f
7:18am  -  mph 1015.9mb 48f 30f
7:12am  -  1 mph 1015.8mb 47f 29f
7:06am 1 2 mph 1015.8mb 47f 30f
7:00am 1 2 mph 1015.8mb 47f 30f
6:54am 2
mph
1015.6mb 47f 29f
6:48am  -  2 mph 1015.5mb 47f 29f
6:42am  -  mph 1015.4mb 47f 29f
6:36am  -  mph 1015.3mb 47f 30f
6:30am  -  mph 1015.2mb 47f 29f
6:24am  -  mph 1015.2mb 47f 29f
6:18am  -  mph 1015.2mb 47f 30f
6:12am  -  mph 1015.1mb 47f 30f
6:06am  -  mph 1015mb 47f 30f
6:00am  -  mph 1014.9mb 47f 30f
5:48am  -  mph 1014.9mb 47f 30f
5:42am  -  mph 1014.8mb 47f 30f
5:36am  -  mph 1014.8mb 47f 30f
5:30am  -  mph 1014.7mb 47f 30f
5:24am  -  mph 1014.7mb 48f 30f
5:18am  -  mph 1014.6mb 48f 30f
5:12am  -  2 mph 1014.6mb 48f 30f
5:06am 1 2 mph 1014.6mb 48f 30f
5:00am 2
mph
1014.5mb 48f 31f
4:54am 2
mph
1014.4mb 48f 31f
4:48am 1 2 mph 1014.3mb 48f 31f
4:42am 2
mph
1014.4mb 48f 31f
4:36am  -  mph 1014.3mb 48f 31f
4:30am  -  mph 1014.2mb 48f 31f
4:24am  -  mph 1014.1mb 48f 31f
4:18am  -  mph 1014.1mb 48f 31f
4:12am  -  mph 1014.1mb 48f 32f
4:06am  -  mph 1014.1mb 48f 31f
4:00am  -  mph 1014mb 48f 31f
3:54am  -  mph 1014mb 48f 31f
3:48am  -  mph 1013.9mb 48f 31f
3:42am 1 2 mph 1013.8mb 48f 31f
3:36am 2
mph
1013.9mb 48f 31f
3:30am 2
mph
1013.9mb 48f 32f
3:24am 2 3 mph 1013.9mb 48f 32f
3:18am 2
mph
1013.8mb 48f 32f
3:12am 2
mph
1013.8mb 48f 32f
3:06am  -  2 mph 1013.7mb 48f 32f
3:00am  -  mph 1013.7mb 48f 32f
2:54am  -  mph 1013.7mb 48f 32f
2:48am  -  mph 1013.7mb 48f 32f
2:42am  -  mph 1013.6mb 48f 32f
2:36am  -  mph 1013.7mb 47f 32f
2:30am  -  2 mph 1013.6mb 47f 32f
2:24am  -  mph 1013.5mb 47f 32f
2:18am 1 2 mph 1013.5mb 47f 32f
2:12am 2 3 mph 1013.4mb 47f 32f
2:06am 2 3 mph 1013.4mb 47f 32f
2:00am 2
mph
1013.3mb 47f 32f
1:54am  -  mph 1013.3mb 47f 31f
1:48am  -  mph 1013.2mb 47f 31f
1:42am  -  mph 1013.2mb 47f 31f
1:36am  -  mph 1013.1mb 47f 31f
1:30am  -  mph 1013mb 47f 31f
1:24am  -  mph 1012.9mb 47f 31f
1:18am  -  mph 1012.9mb 47f 31f
1:12am  -  mph 1012.9mb 47f 31f
1:06am  -  mph 1012.9mb 47f 31f
1:00am  -  mph 1012.9mb 47f 31f
12:54am  -  mph 1012.8mb 47f 31f
12:48am  -  mph 1012.8mb 47f 31f
12:42am  -  mph 1012.9mb 47f 31f
12:36am  -  mph 1012.9mb 47f 31f
12:30am  -  mph 1012.9mb 47f 31f
12:24am  -  1 mph 1012.8mb 47f 31f
12:18am  -  2 mph 1012.8mb 47f 31f
12:12am 2 3 mph 1012.8mb 47f 31f
12:06am 2 3 mph 1012.8mb 47f 32f
12:00am 2
mph
1012.9mb 47f 32f
Sun 12/14 11:54pm 1 2 mph 1012.9mb 47f 32f
11:48pm 1 2 mph 1012.9mb 47f 32f
11:42pm 2
mph
1012.9mb 47f 32f
11:36pm  -  mph 1012.8mb 47f 32f
11:30pm  -  mph 1012.9mb 47f 32f
11:24pm  -  mph 1012.9mb 46f 32f
11:18pm  -  mph 1013mb 47f 32f
11:12pm  -  mph 1013mb 47f 32f
11:06pm  -  2 mph 1013mb 47f 33f
11:00pm 2 3 mph 1013mb 48f 33f
10:54pm 3
mph
1013mb 48f 33f
10:48pm  -  mph 1013mb 48f 33f
10:42pm  -  mph 1013mb 48f 33f
10:36pm  -  2 mph 1013mb 48f 33f
10:30pm 1 2 mph 1012.9mb 47f 34f
10:24pm 2
mph
1012.9mb 47f 34f
10:18pm 1 2 mph 1012.8mb 47f 34f
10:12pm  -  mph 1012.8mb 48f 34f
10:06pm  -  mph 1012.8mb 48f 35f
10:00pm  -  1 mph 1012.7mb 48f 34f
9:54pm  -  3 mph 1012.6mb 48f 35f
9:48pm 2 3 mph 1012.5mb 47f 35f
9:42pm 2 3 mph 1012.4mb 47f 35f
9:36pm 2 3 mph 1012.4mb 47f 35f
9:30pm 2
mph
1012.4mb 47f 35f
9:24pm 2
mph
1012.3mb 47f 35f
9:18pm  -  mph 1012.3mb 47f 35f
9:12pm  -  mph 1012.2mb 47f 35f
9:06pm  -  mph 1012.2mb 47f 35f
9:00pm  -  mph 1012.1mb 47f 35f
8:54pm  -  mph 1012.1mb 47f 35f
8:48pm  -  1 mph 1012.2mb 47f 35f
8:42pm 1 2 mph 1012.1mb 47f 36f